• In Hungary
  • List of Countries
  • For 7 days
  • Water Temperature
  • Satellite Maps
  • Weather Map
  • News
  • Weather Widgets
  • user-avatar
    Login

    Hourly Weather Brčko

    Today, 20 October, Friday

    Time Temperature Precipitation Wind Pressure Humidity
    00:00 +15°C° 0 mm 1 mps 754 mmHg 53%
    01:00 +15°C° 0 mm 1 mps 755 mmHg 54%
    02:00 +15°C° 0 mm 1 mps 755 mmHg 56%
    03:00 +14°C° 0 mm 1 mps 755 mmHg 58%
    04:00 +14°C° 0 mm 1 mps 755 mmHg 60%
    05:00 +14°C° 0 mm 1 mps 755 mmHg 61%
    06:00 +14°C° 0 mm 1 mps 755 mmHg 61%
    07:00 +15°C° 0 mm 1 mps 755 mmHg 59%
    08:00 +18°C° 0 mm 1 mps 755 mmHg 53%
    09:00 +21°C° 0 mm 1 mps 755 mmHg 46%
    10:00 +23°C° 0 mm 1 mps 755 mmHg 39%
    11:00 +24°C° 0 mm 1 mps 755 mmHg 37%
    12:00 +25°C° 0 mm 1 mps 755 mmHg 34%
    13:00 +27°C° 0 mm 1 mps 755 mmHg 31%
    14:00 +26°C° 0 mm 1 mps 754 mmHg 34%
    15:00 +25°C° 0 mm 1 mps 754 mmHg 37%
    16:00 +24°C° 0 mm 1 mps 754 mmHg 40%
    17:00 +22°C° 0 mm 1 mps 754 mmHg 44%
    18:00 +19°C° 0 mm 0 mps 755 mmHg 48%
    19:00 +17°C° 0 mm 0 mps 755 mmHg 52%
    20:00 +18°C° 0 mm 1 mps 755 mmHg 53%
    21:00 +18°C° 0 mm 1 mps 755 mmHg 55%
    22:00 +18°C° 0 mm 1 mps 756 mmHg 57%
    23:00 +16°C° 0 mm 1 mps 756 mmHg 60%

    Tomorrow, 21 October, Saturday

    Time Temperature Precipitation Wind Pressure Humidity
    00:00 +16°C° 0 mm 1 mps 756 mmHg 62%
    01:00 +15°C° 0 mm 2 mps 756 mmHg 65%
    02:00 +15°C° 0 mm 2 mps 756 mmHg 67%
    03:00 +14°C° 0 mm 2 mps 756 mmHg 70%
    04:00 +14°C° 0 mm 2 mps 756 mmHg 72%
    05:00 +14°C° 0 mm 2 mps 756 mmHg 73%
    06:00 +14°C° 0 mm 1 mps 756 mmHg 73%
    07:00 +14°C° 0 mm 1 mps 756 mmHg 74%
    08:00 +17°C° 0 mm 2 mps 756 mmHg 65%
    09:00 +19°C° 0 mm 2 mps 756 mmHg 57%
    10:00 +21°C° 0 mm 2 mps 756 mmHg 48%
    11:00 +23°C° 0 mm 2 mps 756 mmHg 44%
    12:00 +24°C° 0 mm 2 mps 755 mmHg 40%
    13:00 +25°C° 0 mm 2 mps 755 mmHg 36%
    14:00 +24°C° 0 mm 2 mps 755 mmHg 38%
    15:00 +24°C° 0 mm 2 mps 754 mmHg 41%
    16:00 +23°C° 0 mm 2 mps 754 mmHg 43%
    17:00 +21°C° 0 mm 1 mps 754 mmHg 48%
    18:00 +19°C° 0 mm 1 mps 754 mmHg 53%
    19:00 +18°C° 0 mm 1 mps 755 mmHg 57%
    20:00 +16°C° 0 mm 1 mps 755 mmHg 59%
    21:00 +16°C° 0 mm 1 mps 755 mmHg 60%
    22:00 +16°C° 0 mm 1 mps 755 mmHg 62%
    23:00 +15°C° 0 mm 1 mps 755 mmHg 63%

    Day after tomorrow, 22 October, Sunday

    Time Temperature Precipitation Wind Pressure Humidity
    00:00 +15°C° 0 mm 1 mps 755 mmHg 65%
    01:00 +15°C° 0 mm 1 mps 755 mmHg 66%
    02:00 +14°C° 0 mm 1 mps 754 mmHg 67%
    03:00 +14°C° 0 mm 1 mps 754 mmHg 69%
    04:00 +14°C° 0 mm 1 mps 754 mmHg 70%
    05:00 +14°C° 0 mm 1 mps 754 mmHg 70%
    06:00 +14°C° 0 mm 1 mps 754 mmHg 70%
    07:00 +14°C° 0 mm 1 mps 754 mmHg 70%
    08:00 +16°C° 0 mm 1 mps 754 mmHg 62%
    09:00 +20°C° 0 mm 1 mps 753 mmHg 55%
    10:00 +20°C° 0 mm 0 mps 753 mmHg 48%
    11:00 +21°C° 0 mm 0 mps 753 mmHg 46%
    12:00 +22°C° 0 mm 0 mps 752 mmHg 43%
    13:00 +25°C° 0 mm 1 mps 752 mmHg 41%
    14:00 +24°C° 0 mm 1 mps 751 mmHg 44%
    15:00 +23°C° 0 mm 1 mps 750 mmHg 47%
    16:00 +22°C° 0 mm 1 mps 750 mmHg 50%
    17:00 +20°C° 0.1 mm 2 mps 750 mmHg 53%
    18:00 +19°C° 0.1 mm 2 mps 750 mmHg 57%
    19:00 +18°C° 0.1 mm 2 mps 750 mmHg 60%
    20:00 +17°C° 0.8 mm 2 mps 750 mmHg 67%
    21:00 +17°C° 0.8 mm 2 mps 750 mmHg 74%
    22:00 +16°C° 0.8 mm 3 mps 750 mmHg 81%
    23:00 +14°C° 0.7 mm 3 mps 749 mmHg 83%

    23 October, Monday

    Time Temperature Precipitation Wind Pressure Humidity
    00:00 +14°C° 0.7 mm 4 mps 749 mmHg 86%
    01:00 +13°C° 0.7 mm 4 mps 749 mmHg 88%
    02:00 +12°C° 1.6 mm 4 mps 749 mmHg 87%
    03:00 +12°C° 1.6 mm 5 mps 749 mmHg 86%
    04:00 +10°C° 1.6 mm 5 mps 748 mmHg 86%
    05:00 +10°C° 1.3 mm 5 mps 749 mmHg 85%
    06:00 +10°C° 1.3 mm 4 mps 749 mmHg 84%
    07:00 +10°C° 1.3 mm 4 mps 749 mmHg 82%
    08:00 +9°C° 1 mm 5 mps 749 mmHg 80%
    09:00 +9°C° 1 mm 5 mps 749 mmHg 78%
    10:00 +9°C° 1 mm 5 mps 749 mmHg 76%
    11:00 +10°C° 0.5 mm 5 mps 749 mmHg 75%
    12:00 +10°C° 0.5 mm 5 mps 749 mmHg 74%
    13:00 +10°C° 0.5 mm 5 mps 750 mmHg 73%
    14:00 +11°C° 0.1 mm 4 mps 750 mmHg 73%
    15:00 +11°C° 0.1 mm 4 mps 750 mmHg 72%
    16:00 +11°C° 0.1 mm 4 mps 750 mmHg 72%
    17:00 +11°C° 0.2 mm 4 mps 750 mmHg 74%
    18:00 +11°C° 0.2 mm 4 mps 750 mmHg 75%
    19:00 +10°C° 0.2 mm 4 mps 750 mmHg 76%
    20:00 +10°C° 0.2 mm 4 mps 750 mmHg 76%
    21:00 +10°C° 0.2 mm 4 mps 751 mmHg 77%
    22:00 +10°C° 0.2 mm 4 mps 751 mmHg 77%
    23:00 +10°C° 0.1 mm 4 mps 751 mmHg 77%

    24 October, Tuesday

    Time Temperature Precipitation Wind Pressure Humidity
    00:00 +8°C° 0.1 mm 4 mps 750 mmHg 77%
    01:00 +8°C° 0.1 mm 4 mps 750 mmHg 77%
    02:00 +8°C° 0.1 mm 4 mps 750 mmHg 77%
    03:00 +8°C° 0.1 mm 4 mps 751 mmHg 78%
    04:00 +8°C° 0.1 mm 4 mps 751 mmHg 78%
    05:00 +8°C° 0.1 mm 4 mps 751 mmHg 78%
    06:00 +8°C° 0.1 mm 4 mps 751 mmHg 78%
    07:00 +8°C° 0.1 mm 4 mps 751 mmHg 78%
    08:00 +9°C° 0.1 mm 5 mps 752 mmHg 75%
    09:00 +10°C° 0.1 mm 5 mps 752 mmHg 71%
    10:00 +10°C° 0.1 mm 5 mps 752 mmHg 68%
    11:00 +12°C° 0.1 mm 5 mps 752 mmHg 69%
    12:00 +12°C° 0.1 mm 5 mps 752 mmHg 70%
    13:00 +12°C° 0.1 mm 5 mps 752 mmHg 71%
    14:00 +12°C° 0.2 mm 5 mps 752 mmHg 71%
    15:00 +12°C° 0.2 mm 5 mps 752 mmHg 72%
    16:00 +12°C° 0.2 mm 4 mps 753 mmHg 72%
    17:00 +12°C° 0.4 mm 5 mps 753 mmHg 73%
    18:00 +12°C° 0.4 mm 5 mps 754 mmHg 74%
    19:00 +12°C° 0.4 mm 5 mps 754 mmHg 74%
    20:00 +10°C° 0.2 mm 5 mps 754 mmHg 75%
    21:00 +10°C° 0.2 mm 5 mps 755 mmHg 76%
    22:00 +11°C° 0.2 mm 4 mps 755 mmHg 77%
    23:00 +10°C° 0.1 mm 4 mps 756 mmHg 78%

    25 October, Wednesday

    Time Temperature Precipitation Wind Pressure Humidity
    00:00 +10°C° 0.1 mm 4 mps 756 mmHg 79%
    01:00 +8°C° 0.1 mm 4 mps 756 mmHg 80%
    02:00 +8°C° 0.1 mm 4 mps 757 mmHg 81%
    03:00 +9°C° 0.1 mm 3 mps 757 mmHg 81%
    04:00 +9°C° 0.1 mm 3 mps 757 mmHg 81%
    05:00 +9°C° 0.1 mm 3 mps 758 mmHg 82%
    06:00 +9°C° 0.1 mm 3 mps 758 mmHg 82%
    07:00 +8°C° 0.1 mm 3 mps 759 mmHg 83%
    08:00 +9°C° 0 mm 3 mps 759 mmHg 79%
    09:00 +10°C° 0 mm 3 mps 760 mmHg 75%
    10:00 +12°C° 0 mm 2 mps 760 mmHg 72%
    11:00 +12°C° 0 mm 3 mps 760 mmHg 68%
    12:00 +13°C° 0 mm 3 mps 760 mmHg 64%
    13:00 +16°C° 0 mm 3 mps 760 mmHg 60%
    14:00 +16°C° 0 mm 2 mps 760 mmHg 61%
    15:00 +15°C° 0 mm 2 mps 760 mmHg 62%
    16:00 +15°C° 0 mm 2 mps 760 mmHg 63%
    17:00 +14°C° 0 mm 2 mps 761 mmHg 67%
    18:00 +13°C° 0 mm 1 mps 761 mmHg 71%
    19:00 +12°C° 0 mm 1 mps 762 mmHg 75%
    20:00 +11°C° 0 mm 1 mps 762 mmHg 76%
    21:00 +11°C° 0 mm 1 mps 762 mmHg 78%
    22:00 +10°C° 0 mm 1 mps 763 mmHg 80%
    23:00 +10°C° 0 mm 1 mps 763 mmHg 81%
    Show more